| time (UTC) | temp F | wind direction | speed MPH | gust MPH | rain 1hr in | rain 24hr in | rain mn in | humidity % | barometer mb |
| 20260507025507 | 61 | 242 | 0.0 | 16.0 | 0.00 | 0.00 | 0.00 | 62 | 1008.3 |
| 20260507025007 | 61 | 232 | 0.0 | 16.0 | 0.00 | 0.00 | 0.00 | 62 | 1008.2 |
| 20260507024507 | 61 | 230 | 0.0 | 6.0 | 0.00 | 0.00 | 0.00 | 62 | 1008.1 |
| 20260507024007 | 61 | 206 | 0.0 | 8.0 | 0.00 | 0.00 | 0.00 | 62 | 1008.2 |
| 20260507023507 | 61 | 231 | 0.0 | 8.0 | 0.00 | 0.00 | 0.00 | 63 | 1008.3 |
| 20260507023007 | 61 | 234 | 0.0 | 8.0 | 0.00 | 0.00 | 0.00 | 63 | 1008.3 |
| 20260507022507 | 61 | 215 | 0.0 | 8.0 | 0.00 | 0.00 | 0.00 | 63 | 1008.1 |
| 20260507022008 | 61 | 206 | 0.0 | 8.0 | 0.00 | 0.00 | 0.00 | 63 | 1008.2 |
| 20260507021506 | 61 | 283 | 0.0 | 6.0 | 0.00 | 0.00 | 0.00 | 63 | 1008.3 |
| 20260507020507 | 61 | 248 | 0.0 | 9.0 | 0.00 | 0.00 | 0.00 | 63 | 1008.2 |
| 20260507020007 | 61 | 229 | 0.0 | 9.0 | 0.00 | 0.00 | 0.00 | 64 | 1008.1 |
| 20260507015508 | 61 | 234 | 0.0 | 5.0 | 0.00 | 0.00 | 0.00 | 63 | 1008.2 |
| 20260507015007 | 61 | 228 | 0.0 | 6.0 | 0.00 | 0.00 | 0.00 | 63 | 1008.1 |
| 20260507014007 | 62 | 260 | 4.0 | 5.0 | 0.00 | 0.00 | 0.00 | 63 | 1008.1 |
| 20260507013506 | 62 | 262 | 0.0 | 5.0 | 0.00 | 0.00 | 0.00 | 63 | 1008.1 |
| 20260507012506 | 62 | 259 | 3.0 | 6.0 | 0.00 | 0.00 | 0.00 | 63 | 1007.9 |
| 20260507012007 | 62 | 245 | 0.0 | 6.0 | 0.00 | 0.00 | 0.00 | 63 | 1007.7 |
| 20260507011507 | 62 | 247 | 0.0 | 5.0 | 0.00 | 0.00 | 0.00 | 63 | 1007.6 |
| 20260507010007 | 62 | 219 | 7.0 | 7.0 | 0.00 | 0.00 | 0.00 | 63 | 1007.7 |
| 20260507005507 | 62 | 221 | 0.0 | 7.0 | 0.00 | 0.00 | 0.00 | 63 | 1007.5 |
| 20260507004506 | 62 | 206 | 0.0 | 8.0 | 0.00 | 0.00 | 0.00 | 63 | 1007.7 |
| 20260507004008 | 62 | 221 | 0.0 | 8.0 | 0.00 | 0.00 | 0.00 | 63 | 1007.6 |
| 20260507003507 | 62 | 221 | 0.0 | 8.0 | 0.00 | 0.00 | 0.00 | 63 | 1007.6 |
| 20260507003006 | 62 | 298 | 0.0 | 4.0 | 0.00 | 0.00 | 0.00 | 63 | 1007.6 |
| 20260507002507 | 63 | 268 | 0.0 | 6.0 | 0.00 | 0.00 | 0.00 | 63 | 1007.5 |
| 20260507002008 | 63 | 271 | 0.0 | 11.0 | 0.00 | 0.00 | 0.00 | 63 | 1007.5 |
| 20260507001507 | 63 | 279 | 0.0 | 11.0 | 0.00 | 0.00 | 0.00 | 63 | 1007.3 |
| 20260507001006 | 63 | 215 | 0.0 | 8.0 | 0.00 | 0.00 | 0.00 | 63 | 1007.2 |
| 20260506235507 | 63 | 208 | 0.0 | 4.0 | 0.00 | 0.00 | 0.00 | 64 | 1007.0 |
| 20260506235007 | 63 | 236 | 0.0 | 10.0 | 0.00 | 0.00 | 0.00 | 64 | 1007.0 |
| 20260506234508 | 63 | 280 | 0.0 | 10.0 | 0.00 | 0.00 | 0.00 | 65 | 1007.0 |
| 20260506234007 | 63 | 251 | 0.0 | 14.0 | 0.00 | 0.00 | 0.00 | 65 | 1007.2 |
| 20260506233507 | 63 | 209 | 0.0 | 14.0 | 0.00 | 0.00 | 0.00 | 64 | 1007.1 |
| 20260506233007 | 63 | 213 | 0.0 | 8.0 | 0.00 | 0.00 | 0.00 | 64 | 1006.9 |
| 20260506232507 | 63 | 233 | 0.0 | 8.0 | 0.00 | 0.00 | 0.00 | 64 | 1006.9 |
| 20260506232009 | 63 | 225 | 0.0 | 11.0 | 0.00 | 0.00 | 0.00 | 64 | 1007.0 |
| 20260506231507 | 64 | 215 | 0.0 | 11.0 | 0.00 | 0.00 | 0.00 | 63 | 1006.9 |
| 20260506231007 | 64 | 214 | 0.0 | 10.0 | 0.00 | 0.00 | 0.00 | 63 | 1006.9 |
| 20260506230507 | 64 | 203 | 0.0 | 7.0 | 0.00 | 0.00 | 0.00 | 62 | 1006.6 |
| 20260506225507 | 64 | 214 | 0.0 | 6.0 | 0.00 | 0.00 | 0.00 | 62 | 1006.5 |
| 20260506225007 | 64 | 208 | 0.0 | 6.0 | 0.00 | 0.00 | 0.00 | 61 | 1006.5 |
| 20260506224507 | 64 | 203 | 0.0 | 4.0 | 0.00 | 0.00 | 0.00 | 61 | 1006.6 |
| 20260506224008 | 64 | 217 | 0.0 | 3.0 | 0.00 | 0.00 | 0.00 | 62 | 1006.3 |
| 20260506223507 | 64 | 209 | 0.0 | 10.0 | 0.00 | 0.00 | 0.00 | 62 | 1006.3 |
| 20260506222506 | 64 | 202 | 0.0 | 6.0 | 0.00 | 0.00 | 0.00 | 62 | 1006.0 |
| 20260506222007 | 64 | 203 | 0.0 | 6.0 | 0.00 | 0.00 | 0.00 | 62 | 1005.9 |
| 20260506221507 | 64 | 203 | 0.0 | 6.0 | 0.00 | 0.00 | 0.00 | 61 | 1005.6 |
| 20260506221009 | 64 | 200 | 0.0 | 5.0 | 0.00 | 0.00 | 0.00 | 61 | 1005.6 |
| 20260506220507 | 64 | 207 | 0.0 | 6.0 | 0.00 | 0.00 | 0.00 | 61 | 1005.6 |
| 20260506220007 | 64 | 209 | 0.0 | 6.0 | 0.00 | 0.00 | 0.00 | 61 | 1005.4 |
| 20260506215506 | 65 | 203 | 0.0 | 4.0 | 0.00 | 0.00 | 0.00 | 61 | 1005.3 |
| 20260506214506 | 65 | 203 | 0.0 | 8.0 | 0.00 | 0.00 | 0.00 | 61 | 1005.0 |
| 20260506214007 | 65 | 199 | 8.0 | 8.0 | 0.00 | 0.00 | 0.00 | 60 | 1004.9 |
| 20260506213507 | 65 | 199 | 0.0 | 9.0 | 0.00 | 0.00 | 0.00 | 60 | 1004.8 |
| 20260506213007 | 65 | 203 | 0.0 | 9.0 | 0.00 | 0.00 | 0.00 | 60 | 1005.0 |
| 20260506212507 | 65 | 202 | 0.0 | 6.0 | 0.00 | 0.00 | 0.00 | 60 | 1004.8 |
| 20260506212007 | 65 | 193 | 0.0 | 9.0 | 0.00 | 0.00 | 0.00 | 60 | 1004.6 |
| 20260506211507 | 65 | 194 | 3.0 | 9.0 | 0.00 | 0.00 | 0.00 | 60 | 1004.8 |
| 20260506210506 | 65 | 192 | 0.0 | 8.0 | 0.00 | 0.00 | 0.00 | 60 | 1004.5 |
| 20260506205006 | 66 | 196 | 3.0 | 9.0 | 0.00 | 0.00 | 0.00 | 59 | 1004.3 |
| 20260506204507 | 66 | 203 | 0.0 | 9.0 | 0.00 | 0.00 | 0.00 | 59 | 1004.3 |
| 20260506204007 | 66 | 205 | 0.0 | 7.0 | 0.00 | 0.00 | 0.00 | 59 | 1004.2 |
| 20260506203006 | 66 | 204 | 6.0 | 7.0 | 0.00 | 0.00 | 0.00 | 58 | 1004.2 |
| 20260506202507 | 67 | 201 | 4.0 | 13.0 | 0.00 | 0.00 | 0.00 | 58 | 1004.2 |
| 20260506202007 | 67 | 199 | 7.0 | 13.0 | 0.00 | 0.00 | 0.00 | 58 | 1004.0 |
| 20260506201007 | 67 | 205 | 3.0 | 12.0 | 0.00 | 0.00 | 0.00 | 57 | 1004.2 |
| 20260506200507 | 67 | 205 | 0.0 | 12.0 | 0.00 | 0.00 | 0.00 | 57 | 1004.2 |
| 20260506200007 | 67 | 201 | 0.0 | 9.0 | 0.00 | 0.00 | 0.00 | 57 | 1004.2 |
| 20260506195007 | 67 | 204 | 0.0 | 8.0 | 0.00 | 0.00 | 0.00 | 56 | 1003.9 |
| 20260506194507 | 68 | 206 | 0.0 | 8.0 | 0.00 | 0.00 | 0.00 | 56 | 1003.7 |
| 20260506194006 | 68 | 203 | 2.0 | 9.0 | 0.00 | 0.00 | 0.00 | 56 | 1003.7 |
| 20260506193508 | 68 | 194 | 1.0 | 9.0 | 0.00 | 0.00 | 0.00 | 55 | 1003.7 |
| 20260506193007 | 68 | 191 | 0.0 | 7.0 | 0.00 | 0.00 | 0.00 | 55 | 1003.6 |
| 20260506192506 | 68 | 198 | 6.0 | 8.0 | 0.00 | 0.00 | 0.00 | 55 | 1003.6 |
| 20260506192007 | 68 | 186 | 0.0 | 12.0 | 0.00 | 0.00 | 0.00 | 54 | 1003.6 |
| 20260506191509 | 68 | 183 | 0.0 | 12.0 | 0.00 | 0.00 | 0.00 | 54 | 1003.6 |
| 20260506191007 | 68 | 195 | 0.0 | 9.0 | 0.00 | 0.00 | 0.00 | 54 | 1003.5 |
| 20260506190506 | 69 | 191 | 0.0 | 6.0 | 0.00 | 0.00 | 0.00 | 53 | 1003.5 |
| 20260506190006 | 69 | 192 | 0.0 | 7.0 | 0.00 | 0.00 | 0.00 | 53 | 1003.3 |
| 20260506185508 | 69 | 198 | 0.0 | 7.0 | 0.00 | 0.00 | 0.00 | 52 | 1003.3 |
| 20260506185007 | 69 | 209 | 0.0 | 5.0 | 0.00 | 0.00 | 0.00 | 53 | 1003.4 |
| 20260506184507 | 69 | 197 | 0.0 | 12.0 | 0.00 | 0.00 | 0.00 | 52 | 1003.3 |
| 20260506184006 | 70 | 198 | 0.0 | 12.0 | 0.00 | 0.00 | 0.00 | 52 | 1003.1 |
| 20260506183507 | 70 | 205 | 5.0 | 7.0 | 0.00 | 0.00 | 0.00 | 52 | 1002.8 |
| 20260506183007 | 70 | 206 | 0.0 | 7.0 | 0.00 | 0.00 | 0.00 | 51 | 1002.7 |
| 20260506182007 | 71 | 206 | 0.0 | 9.0 | 0.00 | 0.00 | 0.00 | 51 | 1002.8 |
| 20260506181508 | 71 | 195 | 0.0 | 11.0 | 0.00 | 0.00 | 0.00 | 51 | 1002.7 |
| 20260506181006 | 71 | 194 | 0.0 | 11.0 | 0.00 | 0.00 | 0.00 | 50 | 1002.6 |
| 20260506180507 | 71 | 195 | 4.0 | 7.0 | 0.00 | 0.00 | 0.00 | 50 | 1002.6 |
| 20260506180008 | 71 | 199 | 0.0 | 9.0 | 0.00 | 0.00 | 0.00 | 50 | 1002.6 |
| 20260506174507 | 72 | 199 | 0.0 | 10.0 | 0.00 | 0.00 | 0.00 | 50 | 1002.5 |
| 20260506173507 | 72 | 204 | 0.0 | 13.0 | 0.00 | 0.00 | 0.00 | 49 | 1002.4 |
| 20260506173007 | 73 | 206 | 0.0 | 13.0 | 0.00 | 0.00 | 0.00 | 49 | 1002.5 |
| 20260506172007 | 73 | 194 | 6.0 | 11.0 | 0.00 | 0.00 | 0.00 | 48 | 1002.5 |
| 20260506171507 | 73 | 201 | 1.0 | 11.0 | 0.00 | 0.00 | 0.00 | 48 | 1002.5 |
| 20260506171007 | 74 | 198 | 0.0 | 16.0 | 0.00 | 0.00 | 0.00 | 47 | 1002.5 |
| 20260506170506 | 74 | 188 | 0.0 | 19.0 | 0.00 | 0.00 | 0.00 | 47 | 1002.4 |
| 20260506170008 | 74 | 193 | 0.0 | 19.0 | 0.00 | 0.00 | 0.00 | 47 | 1002.3 |
| 20260506165006 | 74 | 206 | 5.0 | 11.0 | 0.00 | 0.00 | 0.00 | 47 | 1002.5 |
| 20260506164506 | 74 | 202 | 0.0 | 9.0 | 0.00 | 0.00 | 0.00 | 46 | 1002.6 |
| 20260506164008 | 75 | 203 | 0.0 | 12.0 | 0.00 | 0.00 | 0.00 | 46 | 1002.6 |
| 20260506163006 | 75 | 184 | 3.0 | 8.0 | 0.00 | 0.00 | 0.00 | 45 | 1002.7 |
| 20260506162507 | 75 | 212 | 8.0 | 19.0 | 0.00 | 0.00 | 0.00 | 46 | 1002.6 |
| 20260506161506 | 75 | 197 | 0.0 | 9.0 | 0.00 | 0.00 | 0.00 | 45 | 1002.8 |
| 20260506161006 | 76 | 197 | 0.0 | 15.0 | 0.00 | 0.00 | 0.00 | 45 | 1002.8 |
| 20260506160508 | 76 | 196 | 0.0 | 15.0 | 0.00 | 0.00 | 0.00 | 45 | 1002.7 |
| 20260506155506 | 76 | 203 | 0.0 | 13.0 | 0.00 | 0.00 | 0.00 | 45 | 1002.7 |
| 20260506155007 | 76 | 199 | 0.0 | 15.0 | 0.00 | 0.00 | 0.00 | 45 | 1002.8 |
| 20260506154508 | 76 | 196 | 1.0 | 15.0 | 0.00 | 0.00 | 0.00 | 44 | 1002.9 |
| 20260506154007 | 76 | 196 | 0.0 | 20.0 | 0.00 | 0.00 | 0.00 | 44 | 1002.9 |
| 20260506153506 | 76 | 196 | 0.0 | 20.0 | 0.00 | 0.00 | 0.00 | 43 | 1002.9 |
| 20260506153006 | 76 | 197 | 4.0 | 20.0 | 0.00 | 0.00 | 0.00 | 43 | 1002.8 |
| 20260506152508 | 76 | 199 | 5.0 | 20.0 | 0.00 | 0.00 | 0.00 | 43 | 1002.8 |
| 20260506152007 | 76 | 201 | 0.0 | 16.0 | 0.00 | 0.00 | 0.00 | 43 | 1002.9 |
| 20260506151507 | 76 | 198 | 0.0 | 12.0 | 0.00 | 0.00 | 0.00 | 43 | 1002.9 |
| 20260506151006 | 76 | 201 | 0.0 | 13.0 | 0.00 | 0.00 | 0.00 | 43 | 1002.8 |
| 20260506150508 | 76 | 209 | 0.0 | 16.0 | 0.00 | 0.00 | 0.00 | 42 | 1002.9 |
| 20260506150006 | 77 | 208 | 5.0 | 16.0 | 0.00 | 0.00 | 0.00 | 42 | 1002.9 |
| 20260506145506 | 77 | 205 | 16.0 | 16.0 | 0.00 | 0.00 | 0.00 | 41 | 1002.9 |
| 20260506145007 | 77 | 200 | 0.0 | 15.0 | 0.00 | 0.00 | 0.00 | 41 | 1003.0 |
| 20260506144507 | 77 | 197 | 5.0 | 15.0 | 0.00 | 0.00 | 0.00 | 41 | 1003.0 |
| 20260506144006 | 77 | 188 | 0.0 | 12.0 | 0.00 | 0.00 | 0.00 | 41 | 1003.0 |
| 20260506143507 | 78 | 192 | 0.0 | 8.0 | 0.00 | 0.00 | 0.00 | 41 | 1003.1 |
| 20260506143007 | 78 | 206 | 0.0 | 8.0 | 0.00 | 0.00 | 0.00 | 41 | 1003.1 |
| 20260506142508 | 78 | 189 | 0.0 | 11.0 | 0.00 | 0.00 | 0.00 | 41 | 1003.1 |
| 20260506142007 | 78 | 187 | 0.0 | 11.0 | 0.00 | 0.00 | 0.00 | 40 | 1003.0 |
| 20260506141506 | 78 | 200 | 2.0 | 12.0 | 0.00 | 0.00 | 0.00 | 40 | 1003.2 |
| 20260506140508 | 78 | 187 | 4.0 | 11.0 | 0.00 | 0.00 | 0.00 | 41 | 1003.4 |
| 20260506140006 | 78 | 184 | 0.0 | 11.0 | 0.00 | 0.00 | 0.00 | 41 | 1003.4 |
| 20260506135512 | 78 | 197 | 0.0 | 7.0 | 0.00 | 0.00 | 0.00 | 41 | 1003.4 |
| 20260506135007 | 78 | 200 | 0.0 | 10.0 | 0.00 | 0.00 | 0.00 | 42 | 1003.5 |
| 20260506134508 | 78 | 190 | 0.0 | 10.0 | 0.00 | 0.00 | 0.00 | 42 | 1003.5 |
| 20260506134006 | 78 | 188 | 8.0 | 10.0 | 0.00 | 0.00 | 0.00 | 42 | 1003.5 |
| 20260506133507 | 78 | 193 | 0.0 | 10.0 | 0.00 | 0.00 | 0.00 | 42 | 1003.5 |
| 20260506133006 | 77 | 198 | 0.0 | 10.0 | 0.00 | 0.00 | 0.00 | 43 | 1003.7 |
| 20260506132508 | 77 | 196 | 0.0 | 8.0 | 0.00 | 0.00 | 0.00 | 43 | 1003.8 |
| 20260506132007 | 77 | 204 | 0.0 | 9.0 | 0.00 | 0.00 | 0.00 | 42 | 1003.8 |
| 20260506131506 | 77 | 207 | 0.0 | 15.0 | 0.00 | 0.00 | 0.00 | 42 | 1003.9 |
| 20260506131008 | 77 | 206 | 0.0 | 15.0 | 0.00 | 0.00 | 0.00 | 42 | 1004.0 |
| 20260506130506 | 77 | 212 | 0.0 | 6.0 | 0.00 | 0.00 | 0.00 | 42 | 1004.2 |
| 20260506130007 | 78 | 196 | 0.0 | 12.0 | 0.00 | 0.00 | 0.00 | 42 | 1004.2 |
| 20260506125007 | 78 | 203 | 0.0 | 3.0 | 0.00 | 0.00 | 0.00 | 43 | 1004.3 |
| 20260506124506 | 78 | 199 | 0.0 | 8.0 | 0.00 | 0.00 | 0.00 | 43 | 1004.3 |
| 20260506124006 | 77 | 202 | 0.0 | 8.0 | 0.00 | 0.00 | 0.00 | 42 | 1004.5 |
| 20260506123507 | 77 | 206 | 0.0 | 7.0 | 0.00 | 0.00 | 0.00 | 42 | 1004.6 |
| 20260506122507 | 78 | 187 | 0.0 | 5.0 | 0.00 | 0.00 | 0.00 | 42 | 1004.6 |
| 20260506121506 | 78 | 186 | 0.0 | 7.0 | 0.00 | 0.00 | 0.00 | 42 | 1004.9 |
| 20260506120507 | 78 | 135 | 0.0 | 6.0 | 0.00 | 0.00 | 0.00 | 42 | 1005.0 |
| 20260506120007 | 78 | 203 | 0.0 | 6.0 | 0.00 | 0.00 | 0.00 | 42 | 1005.1 |
| 20260506115506 | 78 | 202 | 5.0 | 7.0 | 0.00 | 0.00 | 0.00 | 43 | 1005.2 |
| 20260506115008 | 78 | 144 | 0.0 | 7.0 | 0.00 | 0.00 | 0.00 | 42 | 1005.3 |
| 20260506114006 | 78 | 193 | 0.0 | 6.0 | 0.00 | 0.00 | 0.00 | 43 | 1005.2 |
| 20260506113007 | 78 | 198 | 0.0 | 13.0 | 0.00 | 0.00 | 0.00 | 44 | 1005.5 |
| 20260506112007 | 78 | 188 | 13.0 | 13.0 | 0.00 | 0.00 | 0.00 | 46 | 1005.6 |
| 20260506111507 | 77 | 174 | 0.0 | 8.0 | 0.00 | 0.00 | 0.00 | 46 | 1005.6 |
| 20260506111007 | 77 | 166 | 0.0 | 8.0 | 0.00 | 0.00 | 0.00 | 45 | 1005.6 |
| 20260506110506 | 77 | 177 | 0.0 | 10.0 | 0.00 | 0.00 | 0.00 | 45 | 1005.8 |
| 20260506110007 | 77 | 185 | 0.0 | 15.0 | 0.00 | 0.00 | 0.00 | 46 | 1005.9 |
| 20260506105506 | 77 | 177 | 0.0 | 15.0 | 0.00 | 0.00 | 0.00 | 45 | 1006.1 |
| 20260506105007 | 77 | 163 | 0.0 | 13.0 | 0.00 | 0.00 | 0.00 | 45 | 1006.2 |
| 20260506104507 | 77 | 201 | 0.0 | 12.0 | 0.00 | 0.00 | 0.00 | 46 | 1006.1 |
| 20260506104006 | 77 | 204 | 0.0 | 12.0 | 0.00 | 0.00 | 0.00 | 46 | 1006.3 |
| 20260506103006 | 77 | 205 | 0.0 | 9.0 | 0.00 | 0.00 | 0.00 | 47 | 1006.2 |
| 20260506102507 | 77 | 204 | 0.0 | 9.0 | 0.00 | 0.00 | 0.00 | 46 | 1006.3 |
| 20260506102007 | 77 | 190 | 0.0 | 8.0 | 0.00 | 0.00 | 0.00 | 46 | 1006.5 |
| 20260506101508 | 77 | 182 | 0.0 | 8.0 | 0.00 | 0.00 | 0.00 | 46 | 1006.4 |
| 20260506101006 | 77 | 203 | 0.0 | 3.0 | 0.00 | 0.00 | 0.00 | 47 | 1006.6 |
| 20260506100007 | 77 | 197 | 0.0 | 7.0 | 0.00 | 0.00 | 0.00 | 47 | 1006.7 |
| 20260506095506 | 77 | 204 | 0.0 | 9.0 | 0.00 | 0.00 | 0.00 | 48 | 1006.7 |
| 20260506095008 | 77 | 204 | 0.0 | 9.0 | 0.00 | 0.00 | 0.00 | 47 | 1006.8 |
| 20260506094506 | 77 | 203 | 0.0 | 6.0 | 0.00 | 0.00 | 0.00 | 48 | 1006.8 |
| 20260506094006 | 77 | 96 | 3.0 | 6.0 | 0.00 | 0.00 | 0.00 | 49 | 1006.9 |
| 20260506093507 | 76 | 98 | 0.0 | 6.0 | 0.00 | 0.00 | 0.00 | 49 | 1006.9 |
| 20260506093007 | 76 | 203 | 0.0 | 2.0 | 0.00 | 0.00 | 0.00 | 49 | 1007.0 |
| 20260506092507 | 76 | 0 | 0.0 | 0.0 | 0.00 | 0.00 | 0.00 | 49 | 1007.1 |
| 20260506092006 | 76 | 0 | 0.0 | 0.0 | 0.00 | 0.00 | 0.00 | 49 | 1007.0 |
| 20260506091007 | 75 | 0 | 0.0 | 0.0 | 0.00 | 0.00 | 0.00 | 50 | 1007.1 |
| 20260506090506 | 75 | 0 | 0.0 | 0.0 | 0.00 | 0.00 | 0.00 | 51 | 1007.1 |
| 20260506090006 | 75 | 0 | 0.0 | 0.0 | 0.00 | 0.00 | 0.00 | 51 | 1007.0 |
| 20260506085506 | 75 | 0 | 0.0 | 0.0 | 0.00 | 0.00 | 0.00 | 51 | 1007.0 |
| 20260506085008 | 75 | 0 | 0.0 | 0.0 | 0.00 | 0.00 | 0.00 | 51 | 1007.1 |
| 20260506084506 | 74 | 0 | 0.0 | 0.0 | 0.00 | 0.00 | 0.00 | 51 | 1007.0 |
| 20260506084007 | 74 | 0 | 0.0 | 0.0 | 0.00 | 0.00 | 0.00 | 52 | 1007.0 |
| 20260506083506 | 74 | 0 | 0.0 | 0.0 | 0.00 | 0.00 | 0.00 | 52 | 1007.1 |
| 20260506083006 | 74 | 0 | 0.0 | 0.0 | 0.00 | 0.00 | 0.00 | 52 | 1007.1 |
| 20260506082507 | 74 | 0 | 0.0 | 0.0 | 0.00 | 0.00 | 0.00 | 52 | 1007.2 |
| 20260506082007 | 73 | 0 | 0.0 | 0.0 | 0.00 | 0.00 | 0.00 | 52 | 1007.2 |
| 20260506081506 | 73 | 203 | 0.0 | 5.0 | 0.00 | 0.00 | 0.00 | 53 | 1007.3 |
| 20260506080506 | 73 | 0 | 0.0 | 0.0 | 0.00 | 0.00 | 0.00 | 53 | 1007.3 |
| 20260506073507 | 71 | 0 | 0.0 | 0.0 | 0.00 | 0.00 | 0.00 | 54 | 1007.3 |
| 20260506073007 | 71 | 0 | 0.0 | 0.0 | 0.00 | 0.00 | 0.00 | 55 | 1007.4 |
| 20260506072506 | 71 | 0 | 0.0 | 0.0 | 0.00 | 0.00 | 0.00 | 55 | 1007.5 |
| 20260506072006 | 70 | 0 | 0.0 | 0.0 | 0.00 | 0.00 | 0.00 | 55 | 1007.3 |
| 20260506071507 | 70 | 0 | 0.0 | 0.0 | 0.00 | 0.00 | 0.00 | 55 | 1007.4 |
| 20260506071007 | 69 | 0 | 0.0 | 0.0 | 0.00 | 0.00 | 0.00 | 56 | 1007.4 |
| 20260506070506 | 69 | 0 | 0.0 | 0.0 | 0.00 | 0.00 | 0.00 | 56 | 1007.6 |
| 20260506062506 | 67 | 0 | 0.0 | 0.0 | 0.00 | 0.00 | 0.00 | 61 | 1007.8 |
| 20260506062007 | 67 | 0 | 0.0 | 0.0 | 0.00 | 0.00 | 0.00 | 61 | 1007.8 |
| 20260506061507 | 66 | 0 | 0.0 | 0.0 | 0.00 | 0.00 | 0.00 | 61 | 1007.7 |
| 20260506061006 | 66 | 0 | 0.0 | 0.0 | 0.00 | 0.00 | 0.00 | 62 | 1007.8 |
| 20260506060506 | 66 | 0 | 0.0 | 0.0 | 0.00 | 0.00 | 0.00 | 63 | 1007.7 |
| 20260506051007 | 63 | 0 | 0.0 | 0.0 | 0.00 | 0.00 | 0.00 | 67 | 1007.7 |
| 20260506050507 | 63 | 0 | 0.0 | 0.0 | 0.00 | 0.00 | 0.00 | 67 | 1007.7 |
| 20260506045006 | 63 | 0 | 0.0 | 0.0 | 0.00 | 0.00 | 0.00 | 67 | 1007.6 |
| 20260506044506 | 63 | 0 | 0.0 | 0.0 | 0.00 | 0.00 | 0.00 | 68 | 1007.5 |
| 20260506044007 | 63 | 0 | 0.0 | 0.0 | 0.00 | 0.00 | 0.00 | 68 | 1007.6 |
| 20260506043507 | 62 | 0 | 0.0 | 0.0 | 0.00 | 0.00 | 0.00 | 68 | 1007.5 |
| 20260506042506 | 62 | 0 | 0.0 | 0.0 | 0.00 | 0.00 | 0.00 | 67 | 1007.4 |
| 20260506041508 | 62 | 0 | 0.0 | 0.0 | 0.00 | 0.00 | 0.00 | 67 | 1007.4 |
| 20260506041006 | 62 | 0 | 0.0 | 0.0 | 0.00 | 0.00 | 0.00 | 67 | 1007.2 |
| 20260506040007 | 62 | 0 | 0.0 | 0.0 | 0.00 | 0.00 | 0.00 | 67 | 1007.1 |
| 20260506035506 | 62 | 0 | 0.0 | 0.0 | 0.00 | 0.00 | 0.00 | 67 | 1007.2 |
| 20260506035006 | 62 | 0 | 0.0 | 0.0 | 0.00 | 0.00 | 0.00 | 67 | 1007.1 |
| 20260506034507 | 62 | 0 | 0.0 | 0.0 | 0.00 | 0.00 | 0.00 | 67 | 1007.1 |
| 20260506034006 | 62 | 0 | 0.0 | 0.0 | 0.00 | 0.00 | 0.00 | 67 | 1007.0 |
| 20260506033506 | 62 | 0 | 0.0 | 0.0 | 0.00 | 0.00 | 0.00 | 67 | 1007.0 |
| 20260506033006 | 62 | 0 | 0.0 | 0.0 | 0.00 | 0.00 | 0.00 | 67 | 1007.0 |
| 20260506032506 | 62 | 0 | 0.0 | 0.0 | 0.00 | 0.00 | 0.00 | 67 | 1007.0 |
| 20260506031506 | 62 | 0 | 0.0 | 0.0 | 0.00 | 0.00 | 0.00 | 67 | 1007.1 |
| 20260506031006 | 62 | 0 | 0.0 | 0.0 | 0.00 | 0.00 | 0.00 | 67 | 1007.1 |
| 20260506030508 | 62 | 0 | 0.0 | 0.0 | 0.00 | 0.00 | 0.00 | 68 | 1007.1 |
| 20260506030007 | 62 | 0 | 0.0 | 0.0 | 0.00 | 0.00 | 0.00 | 68 | 1007.1 |